Hourly Weather Holubeche

Today, 11 April, Sunday

Time Temperature Precipitation Wind Pressure Humidity
00:00 +5°C° 0 mm 2 mps 746 mmHg 55%
01:00 +4°C° 0 mm 2 mps 746 mmHg 57%
02:00 +4°C° 0 mm 2 mps 746 mmHg 59%
03:00 +4°C° 0 mm 2 mps 746 mmHg 60%
04:00 +3°C° 0 mm 2 mps 746 mmHg 62%
05:00 +3°C° 0 mm 2 mps 746 mmHg 64%
06:00 +5°C° 0 mm 2 mps 747 mmHg 60%
07:00 +6°C° 0 mm 2 mps 747 mmHg 57%
08:00 +7°C° 0 mm 2 mps 747 mmHg 53%
09:00 +9°C° 0 mm 2 mps 747 mmHg 48%
10:00 +10°C° 0 mm 3 mps 747 mmHg 42%
11:00 +11°C° 0 mm 3 mps 747 mmHg 37%
12:00 +12°C° 0 mm 3 mps 747 mmHg 35%
13:00 +12°C° 0 mm 3 mps 747 mmHg 34%
14:00 +13°C° 0 mm 3 mps 747 mmHg 32%
15:00 +13°C° 0 mm 3 mps 746 mmHg 33%
16:00 +13°C° 0 mm 3 mps 746 mmHg 34%
17:00 +13°C° 0 mm 3 mps 746 mmHg 35%
18:00 +12°C° 0 mm 2 mps 746 mmHg 39%
19:00 +10°C° 0 mm 2 mps 746 mmHg 44%
20:00 +9°C° 0 mm 2 mps 746 mmHg 49%
21:00 +8°C° 0 mm 2 mps 746 mmHg 50%
22:00 +8°C° 0 mm 2 mps 746 mmHg 52%
23:00 +7°C° 0 mm 2 mps 746 mmHg 54%

Tomorrow, 12 April, Monday

Time Temperature Precipitation Wind Pressure Humidity
00:00 +7°C° 0 mm 2 mps 746 mmHg 56%
01:00 +7°C° 0 mm 1 mps 746 mmHg 58%
02:00 +7°C° 0 mm 1 mps 746 mmHg 60%
03:00 +7°C° 0 mm 1 mps 746 mmHg 61%
04:00 +5°C° 0 mm 2 mps 745 mmHg 62%
05:00 +5°C° 0 mm 2 mps 745 mmHg 63%
06:00 +6°C° 0 mm 2 mps 745 mmHg 59%
07:00 +8°C° 0 mm 2 mps 745 mmHg 56%
08:00 +9°C° 0 mm 2 mps 745 mmHg 53%
09:00 +10°C° 0 mm 2 mps 745 mmHg 49%
10:00 +13°C° 0 mm 2 mps 744 mmHg 45%
11:00 +14°C° 0 mm 2 mps 744 mmHg 40%
12:00 +15°C° 0 mm 2 mps 744 mmHg 39%
13:00 +16°C° 0 mm 2 mps 743 mmHg 38%
14:00 +17°C° 0 mm 2 mps 743 mmHg 37%
15:00 +17°C° 0 mm 2 mps 743 mmHg 38%
16:00 +16°C° 0 mm 2 mps 742 mmHg 39%
17:00 +16°C° 0 mm 2 mps 742 mmHg 40%
18:00 +15°C° 0 mm 2 mps 742 mmHg 46%
19:00 +13°C° 0 mm 2 mps 742 mmHg 53%
20:00 +12°C° 0 mm 2 mps 743 mmHg 59%
21:00 +10°C° 0 mm 2 mps 742 mmHg 66%
22:00 +10°C° 0 mm 1 mps 742 mmHg 73%
23:00 +10°C° 0 mm 1 mps 742 mmHg 80%

Day after tomorrow, 13 April, Tuesday

Time Temperature Precipitation Wind Pressure Humidity
00:00 +10°C° 0 mm 1 mps 742 mmHg 81%
01:00 +10°C° 0 mm 1 mps 742 mmHg 82%
02:00 +10°C° 0 mm 1 mps 741 mmHg 82%
03:00 +10°C° 0 mm 1 mps 741 mmHg 83%
04:00 +10°C° 0 mm 1 mps 741 mmHg 83%
05:00 +10°C° 0 mm 1 mps 741 mmHg 84%
06:00 +10°C° 0 mm 1 mps 741 mmHg 81%
07:00 +11°C° 0 mm 1 mps 741 mmHg 79%
08:00 +12°C° 0 mm 1 mps 741 mmHg 77%
09:00 +13°C° 0 mm 1 mps 741 mmHg 74%
10:00 +13°C° 0 mm 1 mps 741 mmHg 71%
11:00 +14°C° 0 mm 1 mps 741 mmHg 68%
12:00 +14°C° 0.1 mm 1 mps 741 mmHg 70%
13:00 +14°C° 0.1 mm 2 mps 740 mmHg 73%
14:00 +13°C° 0.1 mm 2 mps 740 mmHg 76%
15:00 +13°C° 0.2 mm 2 mps 740 mmHg 79%
16:00 +12°C° 0.2 mm 2 mps 740 mmHg 83%
17:00 +12°C° 0.2 mm 2 mps 739 mmHg 87%
18:00 +12°C° 0.5 mm 2 mps 739 mmHg 89%
19:00 +10°C° 0.5 mm 2 mps 739 mmHg 91%
20:00 +10°C° 0.5 mm 2 mps 739 mmHg 93%
21:00 +10°C° 0.1 mm 2 mps 739 mmHg 93%
22:00 +10°C° 0.1 mm 2 mps 739 mmHg 92%
23:00 +9°C° 0.1 mm 3 mps 739 mmHg 92%

14 April, Wednesday

Time Temperature Precipitation Wind Pressure Humidity
00:00 +9°C° 0 mm 3 mps 739 mmHg 91%
01:00 +9°C° 0 mm 3 mps 738 mmHg 90%
02:00 +9°C° 0 mm 3 mps 738 mmHg 89%
03:00 +8°C° 0 mm 3 mps 738 mmHg 90%
04:00 +8°C° 0 mm 3 mps 738 mmHg 90%
05:00 +7°C° 0 mm 3 mps 738 mmHg 91%
06:00 +6°C° 0 mm 4 mps 738 mmHg 92%
07:00 +7°C° 0 mm 4 mps 738 mmHg 92%
08:00 +7°C° 0 mm 4 mps 738 mmHg 93%
09:00 +7°C° 0.1 mm 4 mps 738 mmHg 92%
10:00 +7°C° 0.1 mm 4 mps 738 mmHg 91%
11:00 +7°C° 0.1 mm 4 mps 738 mmHg 90%
12:00 +7°C° 0.1 mm 4 mps 738 mmHg 89%
13:00 +7°C° 0.1 mm 4 mps 738 mmHg 88%
14:00 +7°C° 0.1 mm 4 mps 738 mmHg 87%
15:00 +8°C° 0 mm 3 mps 738 mmHg 86%
16:00 +9°C° 0 mm 3 mps 737 mmHg 84%
17:00 +9°C° 0 mm 3 mps 737 mmHg 83%
18:00 +8°C° 0 mm 2 mps 737 mmHg 86%
19:00 +8°C° 0 mm 2 mps 737 mmHg 88%
20:00 +7°C° 0 mm 2 mps 737 mmHg 91%
21:00 +7°C° 0.1 mm 2 mps 737 mmHg 90%
22:00 +7°C° 0.1 mm 2 mps 737 mmHg 90%
23:00 +7°C° 0.1 mm 2 mps 737 mmHg 89%

15 April, Thursday

Time Temperature Precipitation Wind Pressure Humidity
00:00 +7°C° 0.1 mm 2 mps 737 mmHg 89%
01:00 +8°C° 0.1 mm 1 mps 737 mmHg 89%
02:00 +8°C° 0.1 mm 1 mps 737 mmHg 89%
03:00 +7°C° 0.7 mm 2 mps 737 mmHg 91%
04:00 +6°C° 0.7 mm 2 mps 736 mmHg 92%
05:00 +6°C° 0.7 mm 2 mps 736 mmHg 94%
06:00 +6°C° 0.4 mm 2 mps 736 mmHg 94%
07:00 +5°C° 0.4 mm 3 mps 736 mmHg 93%
08:00 +7°C° 0.4 mm 3 mps 736 mmHg 93%
09:00 +7°C° 0.2 mm 3 mps 736 mmHg 92%
10:00 +7°C° 0.2 mm 3 mps 737 mmHg 91%
11:00 +8°C° 0.2 mm 3 mps 737 mmHg 91%
12:00 +8°C° 0.2 mm 3 mps 736 mmHg 90%
13:00 +9°C° 0.2 mm 2 mps 736 mmHg 89%
14:00 +9°C° 0.2 mm 2 mps 736 mmHg 88%
15:00 +9°C° 0.4 mm 2 mps 736 mmHg 89%
16:00 +10°C° 0.4 mm 1 mps 736 mmHg 90%
17:00 +10°C° 0.4 mm 1 mps 736 mmHg 90%
18:00 +10°C° 1.4 mm 1 mps 736 mmHg 92%
19:00 +10°C° 1.4 mm 1 mps 736 mmHg 94%
20:00 +9°C° 1.4 mm 1 mps 736 mmHg 96%
21:00 +9°C° 1 mm 1 mps 736 mmHg 96%
22:00 +9°C° 1 mm 1 mps 736 mmHg 96%
23:00 +9°C° 1 mm 1 mps 735 mmHg 96%

16 April, Friday

Time Temperature Precipitation Wind Pressure Humidity
00:00 +9°C° 0.8 mm 1 mps 735 mmHg 97%
01:00 +9°C° 0.8 mm 1 mps 735 mmHg 97%
02:00 +9°C° 0.8 mm 1 mps 735 mmHg 97%
03:00 +9°C° 0.6 mm 1 mps 735 mmHg 96%
04:00 +8°C° 0.6 mm 2 mps 735 mmHg 95%
05:00 +8°C° 0.6 mm 2 mps 735 mmHg 95%
06:00 +8°C° 0.2 mm 3 mps 735 mmHg 93%
07:00 +8°C° 0.2 mm 4 mps 735 mmHg 91%
08:00 +8°C° 0.2 mm 4 mps 735 mmHg 89%
09:00 +9°C° 0.2 mm 5 mps 735 mmHg 84%
10:00 +10°C° 0.2 mm 5 mps 735 mmHg 80%
11:00 +12°C° 0.2 mm 5 mps 736 mmHg 75%
12:00 +12°C° 0.4 mm 5 mps 736 mmHg 74%
13:00 +11°C° 0.4 mm 6 mps 736 mmHg 73%
14:00 +11°C° 0.4 mm 6 mps 736 mmHg 72%
15:00 +11°C° 0.2 mm 7 mps 736 mmHg 75%
16:00 +10°C° 0.2 mm 7 mps 737 mmHg 79%
17:00 +10°C° 0.2 mm 8 mps 737 mmHg 82%
18:00 +9°C° 0 mm 8 mps 737 mmHg 84%
19:00 +7°C° 0 mm 8 mps 738 mmHg 87%
20:00 +8°C° 0 mm 7 mps 738 mmHg 89%
21:00 +8°C° 0 mm 7 mps 739 mmHg 89%
22:00 +8°C° 0 mm 7 mps 739 mmHg 88%
23:00 +6°C° 0 mm 7 mps 739 mmHg 88%
Show more